• In Germany
  • List of Countries
  • For 7 days
  • Water Temperature
  • Satellite Maps
  • Weather Map
  • Weather Widgets
  • user-avatar
    Login

    Hourly Weather Makoua

    Today, 22 July, Sunday

    Time Temperature Precipitation Wind Pressure Humidity
    00:00 +26°C° 0 mm 1 mps 727 mmHg 70%
    01:00 +26°C° 0 mm 1 mps 727 mmHg 72%
    02:00 +25°C° 0 mm 1 mps 726 mmHg 75%
    03:00 +25°C° 0 mm 1 mps 726 mmHg 78%
    04:00 +25°C° 0 mm 1 mps 726 mmHg 80%
    05:00 +25°C° 0.1 mm 1 mps 727 mmHg 81%
    06:00 +25°C° 0.1 mm 1 mps 727 mmHg 82%
    07:00 +25°C° 0.1 mm 1 mps 727 mmHg 83%
    08:00 +27°C° 0 mm 1 mps 728 mmHg 76%
    09:00 +29°C° 0 mm 2 mps 728 mmHg 68%
    10:00 +31°C° 0 mm 2 mps 728 mmHg 60%
    11:00 +32°C° 0.5 mm 2 mps 728 mmHg 56%
    12:00 +34°C° 0.5 mm 2 mps 727 mmHg 53%
    13:00 +34°C° 0.5 mm 1 mps 727 mmHg 50%
    14:00 +34°C° 0 mm 1 mps 726 mmHg 49%
    15:00 +34°C° 0 mm 1 mps 726 mmHg 48%
    16:00 +33°C° 0 mm 1 mps 725 mmHg 47%
    17:00 +32°C° 0 mm 1 mps 725 mmHg 54%
    18:00 +30°C° 0 mm 1 mps 726 mmHg 62%
    19:00 +28°C° 0 mm 1 mps 726 mmHg 69%
    20:00 +28°C° 0 mm 1 mps 726 mmHg 72%
    21:00 +27°C° 0 mm 1 mps 727 mmHg 75%
    22:00 +26°C° 0 mm 1 mps 727 mmHg 78%
    23:00 +26°C° 0 mm 1 mps 727 mmHg 80%

    Tomorrow, 23 July, Monday

    Time Temperature Precipitation Wind Pressure Humidity
    00:00 +26°C° 0 mm 1 mps 727 mmHg 81%
    01:00 +25°C° 0 mm 1 mps 727 mmHg 83%
    02:00 +25°C° 0 mm 1 mps 726 mmHg 84%
    03:00 +25°C° 0 mm 1 mps 726 mmHg 85%
    04:00 +24°C° 0 mm 1 mps 726 mmHg 86%
    05:00 +24°C° 0 mm 2 mps 726 mmHg 85%
    06:00 +25°C° 0 mm 2 mps 727 mmHg 84%
    07:00 +25°C° 0 mm 2 mps 727 mmHg 83%
    08:00 +27°C° 0 mm 2 mps 728 mmHg 73%
    09:00 +30°C° 0 mm 2 mps 728 mmHg 63%
    10:00 +32°C° 0 mm 2 mps 729 mmHg 53%
    11:00 +35°C° 0 mm 2 mps 728 mmHg 48%
    12:00 +36°C° 0 mm 2 mps 727 mmHg 42%
    13:00 +37°C° 0 mm 1 mps 727 mmHg 37%
    14:00 +36°C° 0 mm 1 mps 726 mmHg 39%
    15:00 +35°C° 0 mm 1 mps 725 mmHg 41%
    16:00 +34°C° 0 mm 1 mps 725 mmHg 42%
    17:00 +32°C° 0.4 mm 1 mps 725 mmHg 52%
    18:00 +30°C° 0.4 mm 1 mps 725 mmHg 61%
    19:00 +28°C° 0.4 mm 1 mps 726 mmHg 70%
    20:00 +28°C° 0.2 mm 1 mps 726 mmHg 74%
    21:00 +27°C° 0.2 mm 1 mps 727 mmHg 78%
    22:00 +26°C° 0.2 mm 1 mps 728 mmHg 82%
    23:00 +26°C° 0.1 mm 1 mps 727 mmHg 84%

    Day after tomorrow, 24 July, Tuesday

    Time Temperature Precipitation Wind Pressure Humidity
    00:00 +25°C° 0.1 mm 1 mps 727 mmHg 85%
    01:00 +25°C° 0.1 mm 1 mps 727 mmHg 86%
    02:00 +25°C° 0 mm 1 mps 727 mmHg 87%
    03:00 +25°C° 0 mm 1 mps 727 mmHg 87%
    04:00 +24°C° 0 mm 1 mps 726 mmHg 88%
    05:00 +24°C° 0 mm 2 mps 727 mmHg 86%
    06:00 +24°C° 0 mm 2 mps 727 mmHg 85%
    07:00 +25°C° 0 mm 2 mps 728 mmHg 84%
    08:00 +27°C° 0 mm 2 mps 728 mmHg 75%
    09:00 +29°C° 0 mm 2 mps 729 mmHg 65%
    10:00 +31°C° 0 mm 2 mps 729 mmHg 56%
    11:00 +32°C° 0 mm 2 mps 728 mmHg 51%
    12:00 +35°C° 0 mm 2 mps 728 mmHg 47%
    13:00 +36°C° 0 mm 2 mps 727 mmHg 42%
    14:00 +35°C° 0 mm 2 mps 727 mmHg 45%
    15:00 +35°C° 0 mm 2 mps 726 mmHg 47%
    16:00 +33°C° 0 mm 1 mps 726 mmHg 50%
    17:00 +31°C° 0.2 mm 1 mps 726 mmHg 57%
    18:00 +29°C° 0.2 mm 2 mps 726 mmHg 65%
    19:00 +28°C° 0.2 mm 2 mps 727 mmHg 72%
    20:00 +27°C° 0 mm 2 mps 727 mmHg 74%
    21:00 +27°C° 0 mm 2 mps 728 mmHg 76%
    22:00 +26°C° 0 mm 2 mps 728 mmHg 78%
    23:00 +26°C° 0 mm 2 mps 728 mmHg 80%

    25 July, Wednesday

    Time Temperature Precipitation Wind Pressure Humidity
    00:00 +25°C° 0 mm 2 mps 728 mmHg 82%
    01:00 +24°C° 0 mm 2 mps 727 mmHg 84%
    02:00 +24°C° 0 mm 2 mps 727 mmHg 85%
    03:00 +24°C° 0 mm 1 mps 727 mmHg 86%
    04:00 +23°C° 0 mm 1 mps 727 mmHg 86%
    05:00 +24°C° 0 mm 2 mps 727 mmHg 85%
    06:00 +24°C° 0 mm 2 mps 727 mmHg 83%
    07:00 +24°C° 0 mm 2 mps 728 mmHg 81%
    08:00 +26°C° 0 mm 2 mps 728 mmHg 71%
    09:00 +28°C° 0 mm 2 mps 728 mmHg 61%
    10:00 +31°C° 0 mm 2 mps 729 mmHg 51%
    11:00 +32°C° 0 mm 2 mps 728 mmHg 46%
    12:00 +35°C° 0 mm 2 mps 728 mmHg 41%
    13:00 +37°C° 0 mm 2 mps 727 mmHg 36%
    14:00 +37°C° 0 mm 2 mps 726 mmHg 35%
    15:00 +37°C° 0 mm 2 mps 726 mmHg 35%
    16:00 +37°C° 0 mm 2 mps 725 mmHg 34%
    17:00 +35°C° 0 mm 2 mps 726 mmHg 41%
    18:00 +32°C° 0 mm 2 mps 726 mmHg 47%
    19:00 +30°C° 0 mm 1 mps 727 mmHg 53%
    20:00 +29°C° 0.3 mm 2 mps 727 mmHg 59%
    21:00 +27°C° 0.3 mm 2 mps 728 mmHg 65%
    22:00 +26°C° 0.3 mm 2 mps 728 mmHg 71%
    23:00 +26°C° 0.2 mm 2 mps 728 mmHg 71%

    26 July, Thursday

    Time Temperature Precipitation Wind Pressure Humidity
    00:00 +25°C° 0.2 mm 2 mps 728 mmHg 71%
    01:00 +25°C° 0.2 mm 2 mps 728 mmHg 72%
    02:00 +24°C° 0.1 mm 2 mps 727 mmHg 72%
    03:00 +24°C° 0.1 mm 1 mps 727 mmHg 73%
    04:00 +24°C° 0.1 mm 1 mps 727 mmHg 74%
    05:00 +24°C° 0 mm 2 mps 727 mmHg 73%
    06:00 +24°C° 0 mm 2 mps 728 mmHg 73%
    07:00 +24°C° 0 mm 2 mps 728 mmHg 72%
    08:00 +26°C° 0 mm 2 mps 729 mmHg 64%
    09:00 +28°C° 0 mm 2 mps 729 mmHg 56%
    10:00 +30°C° 0 mm 2 mps 729 mmHg 47%
    11:00 +32°C° 0 mm 2 mps 729 mmHg 43%
    12:00 +35°C° 0 mm 2 mps 728 mmHg 39%
    13:00 +36°C° 0 mm 2 mps 727 mmHg 35%
    14:00 +36°C° 0 mm 2 mps 727 mmHg 35%
    15:00 +36°C° 0 mm 2 mps 726 mmHg 35%
    16:00 +36°C° 0 mm 2 mps 725 mmHg 35%
    17:00 +34°C° 0 mm 2 mps 726 mmHg 41%
    18:00 +31°C° 0 mm 1 mps 726 mmHg 47%
    19:00 +29°C° 0 mm 1 mps 727 mmHg 54%
    20:00 +29°C° 0 mm 1 mps 727 mmHg 56%
    21:00 +28°C° 0 mm 2 mps 728 mmHg 58%
    22:00 +27°C° 0 mm 2 mps 728 mmHg 61%
    23:00 +27°C° 0 mm 2 mps 728 mmHg 61%

    27 July, Friday

    Time Temperature Precipitation Wind Pressure Humidity
    00:00 +26°C° 0 mm 2 mps 728 mmHg 61%
    01:00 +26°C° 0 mm 2 mps 727 mmHg 60%
    02:00 +25°C° 0 mm 2 mps 727 mmHg 62%
    03:00 +25°C° 0 mm 1 mps 727 mmHg 64%
    04:00 +24°C° 0 mm 1 mps 727 mmHg 65%
    05:00 +24°C° 0 mm 2 mps 728 mmHg 65%
    06:00 +24°C° 0 mm 2 mps 728 mmHg 65%
    07:00 +25°C° 0 mm 2 mps 728 mmHg 65%
    08:00 +26°C° 0 mm 2 mps 729 mmHg 59%
    09:00 +28°C° 0 mm 2 mps 729 mmHg 53%
    10:00 +30°C° 0 mm 2 mps 730 mmHg 46%
    11:00 +32°C° 0 mm 2 mps 729 mmHg 42%
    12:00 +34°C° 0 mm 2 mps 728 mmHg 38%
    13:00 +36°C° 0 mm 2 mps 728 mmHg 34%
    14:00 +36°C° 0 mm 2 mps 727 mmHg 34%
    15:00 +35°C° 0 mm 2 mps 726 mmHg 34%
    16:00 +35°C° 0 mm 2 mps 726 mmHg 34%
    17:00 +32°C° 0 mm 2 mps 726 mmHg 39%
    18:00 +30°C° 0 mm 1 mps 726 mmHg 45%
    19:00 +28°C° 0 mm 1 mps 727 mmHg 51%
    20:00 +27°C° 0 mm 1 mps 727 mmHg 53%
    21:00 +27°C° 0 mm 1 mps 728 mmHg 55%
    22:00 +26°C° 0 mm 1 mps 728 mmHg 57%
    23:00 +26°C° 0 mm 1 mps 728 mmHg 57%
    Show more